Location: Unspecified
(41.5516°N, 88.1098°W)
Time: 15:09:08
(UTC-05:00)

Cosmos 2058 - Visible Passes

Search period start: 25 July 2016 00:00
Search period end: 04 August 2016 00:00
Orbit: 565 x 585 km, 82.5° (Epoch: 24 July)

Date Brightness Start Highest point End Pass type
(mag) Time Alt. Az. Time Alt. Az. Time Alt. Az.
25 Jul 5.8 04:39:43 10° NNE 04:42:59 21° ENE 04:46:13 10° ESE visible
26 Jul 5.3 04:43:02 10° NNE 04:46:42 28° ENE 04:50:20 10° SE visible
27 Jul 4.7 04:46:27 10° N 04:50:23 37° ENE 04:54:18 10° SE visible
28 Jul 4.0 04:49:57 10° N 04:54:04 49° E 04:58:09 10° SSE visible
29 Jul 3.4 04:53:29 10° N 04:57:43 68° E 05:01:54 10° SSE visible
30 Jul 2.9 04:57:06 10° N 05:01:21 88° W 05:05:34 10° S visible
31 Jul 6.2 03:26:34 10° NE 03:27:33 11° ENE 03:28:32 10° E visible
31 Jul 2.9 05:00:46 10° NNW 05:04:57 65° W 05:09:07 10° S visible
01 Aug 5.9 03:29:01 10° NE 03:31:19 14° ENE 03:33:36 10° ESE visible
01 Aug 3.2 05:04:29 10° NNW 05:08:33 47° W 05:12:35 10° SSW visible
02 Aug 5.6 03:32:04 10° NNE 03:35:04 18° ENE 03:38:02 10° ESE visible
02 Aug 3.6 05:08:17 10° NNW 05:12:08 35° W 05:15:57 10° SSW visible
03 Aug 5.2 03:35:19 10° NNE 03:38:47 24° ENE 03:42:14 10° SE visible
03 Aug 4.0 05:12:10 10° NNW 05:15:40 26° W 05:19:11 10° SW visible
